Tracking 19644 objects as of 25-Apr-2019
HD Live streaming from Space Station
objects crossing your sky now

THORAD AGENA D DEB

Track THORAD AGENA D DEB now!
10-day predictions


NORAD ID: 22533
Int'l Code: 1970-025QP
Perigee: 1,022.4 km
Apogee: 1,026.4 km
Inclination: 100.1 °
Period: 105.5 minutes
Semi major axis: 7395 km
RCS: 0.0131 m2 (small)
Launch date: April 8, 1970
Source: United States (US)
Launch site: AIR FORCE WESTERN TEST RANGE (AFWTR)

Note: This is SATELLITE DEBRIS
aabbcc
Your satellite tracking list
Your tracking list is empty




NASA's NSSDC Master Catalog

Two Line Element Set (TLE):
1 22533U 70025QP  19115.08025351 +.00000259 +00000-0 +37864-3 0  9997
2 22533 100.0599 162.5997 0002714 053.8197 012.3361 13.65092769296558
Source of the keplerian elements: AFSPC